Regional Weather Roundup
Issued by NWS Sterling, VA

Home | Current Version | Previous Version | Text Only | Print | Product List | Glossary On
Versions: 1 2 3 4 5 6 7 8 9 10 11 12 13 14 15 16 17 18 19 20 21 22 23 24 25 26 27 28 29 30 31 32 33 34 35 36 37 38 39 40 41 42 43 44 45 46 47 48 49 50
000
ASUS41 KLWX 210210
RWRLWX

REGIONAL WEATHER ROUNDUP
NATIONAL WEATHER SERVICE BALTIMORE MD/WASHINGTON DC
1000 PM EDT MON OCT 20 2014

Note: "FAIR" indicates few or no clouds below 12,000 feet
with no significant weather and/or obstructions to visibility.
 TC=TEMPERATURE CELSIUS

 * =Non NWS site. Station does not report precipitation (e.g. rain,
    snow, etc.), thunder, or fog.

DCZ001-MDZ009-015-VAZ040>042-051-053>054-210300-
WASHINGTON METRO

CITY           SKY/WX    TMP DP  RH WIND       PRES   REMARKS
WASHINGTON NAT MOCLDY    61  46  57 S7        29.97S
DULLES         CLOUDY    58  47  66 S6        29.96R
ANDREWS AFB    MOCLDY    53  44  70 S7        29.96S
FT BELVOIR     MOCLDY    55  48  76 SE2       29.97R
QUANTICO       MOCLDY    61  47  59 SW8       29.97S
COLLEGE PARK*  MOCLDY    54  48  82 CALM      29.96S
LEESBURG*      CLOUDY    55  54  94 CALM      29.96S
MANASSAS*      CLOUDY    55  52  88 SE3       29.96R
GAITHERSBURG*  CLOUDY    55  48  76 S3        29.99S

$$

MDZ006>007-011-014-210300-
BALTIMORE METRO

CITY           SKY/WX    TMP DP  RH WIND       PRES   REMARKS
BWI AIRPORT    MOCLDY    57  43  59 S3        29.96S
MD SCIENCE CTR   N/A     59  44  57 MISG      29.97R
MARTIN STATE   CLEAR     61  48  63 S8        29.98R
ANNAPOLIS      MOCLDY    60  42  51 S6        29.97S
FORT MEADE*    MOCLDY    48  46  93 CALM      29.98F

$$

MDZ012-015-019>023-210300-
MARYLAND EASTERN SHORE

CITY           SKY/WX    TMP DP  RH WIND       PRES   REMARKS
OCEAN CITY     MOCLDY    57  49  74 W3        30.00F
SALISBURY      CLOUDY    52  45  77 E5        30.00S
BAY BRIDGE AP*   N/A     61  43  51 S6        29.97F
CAMBRIDGE*     MOCLDY    55  48  76 SE3       29.98F

$$

MDZ017>025-210300-
SOUTHERN MARYLAND

CITY           SKY/WX    TMP DP  RH WIND       PRES   REMARKS
PATUXENT RIVER CLOUDY    58  44  60 S5        29.98S
ST INIGOES     MOCLDY    60  44  55 S6        29.97F
LEONARDTOWN*   MOCLDY    57  43  58 S3        29.99S

$$

MDZ003>005-210300-
NORTH CENTRAL MARYLAND

CITY           SKY/WX    TMP DP  RH WIND       PRES   REMARKS
FREDERICK*     DRIZZLE   57  50  77 SE5       29.97F
HAGERSTOWN APT CLOUDY    56  47  71 SE7       29.93F
WESTMINSTER*   LGT RAIN  52  50  93 SE3       29.96S

$$

MDZ501>502-210300-
WESTERN MARYLAND

CITY           SKY/WX    TMP DP  RH WIND       PRES   REMARKS
OAKLAND*       CLOUDY    46  43  87 SW12G18   29.92S
CUMBERLAND*    MOCLDY    50  45  81 CALM      29.97R

$$

VAZ025>031-210300-
SHENANDOAH VALLEY

CITY           SKY/WX    TMP DP  RH WIND       PRES   REMARKS
WINCHESTER*    CLOUDY    54  46  76 CALM      29.93S
FRONT ROYAL*   CLOUDY    54  46  76 W3        29.93R
LURAY*         LGT RAIN  55  52  88 W5        29.94R
NEW MARKET*    CLOUDY    58  49  72 CALM      29.93R
STAUNTON*      CLOUDY    59  46  63 S7        29.96S
WAYNESBORO*    CLOUDY    56  47  73 SW3       29.95S

$$

WVZ021-048>050-054>055-210300-
EASTERN WEST VIRGINIA PANHANDLE

CITY           SKY/WX    TMP DP  RH WIND       PRES   REMARKS
MARTINSBURG    CLOUDY    53  47  79 CALM      29.93F
PETERSBURG*    MOCLDY   N/A N/A N/A CALM      29.94F

$$

VAZ036>039-050-210300-
CENTRAL FOOTHILLS

CITY           SKY/WX    TMP DP  RH WIND       PRES   REMARKS
CHARLOTTESVILL LGT RAIN  57  51  80 S8        29.95S
CULPEPER*      LGT RAIN  57  52  82 CALM      29.97R
ORANGE*        CLOUDY    59  48  67 S5        29.98R
GORDONSVILLE*  CLOUDY    56  50  81 SW3       29.96R
WARRENTON*     LGT RAIN  59  54  83 CALM      29.95R

$$

VAZ055>057-210300-
NORTH AND CENTRAL PIEDMONT

CITY           SKY/WX    TMP DP  RH WIND       PRES   REMARKS
FREDERICKSBRG* MOCLDY    59  46  61 S7        29.95F
STAFFORD*      MOCLDY    57  44  62 CALM      30.00S

$$

NCZ024-NYZ072-PAZ021-071-VAZ022-071-210300-
OTHER REGIONAL OBSERVATIONS

CITY           SKY/WX    TMP DP  RH WIND       PRES   REMARKS
NEW YORK CITY  MOCLDY    58  41  53 MISG      30.00S
PHILADELPHIA   MOCLDY    56  44  64 SW5       29.98S
PITTSBURGH     CLOUDY    52  46  80 S6        29.88S
ROANOKE        CLOUDY    60  39  45 SW3       29.98R
RICHMOND       MOCLDY    55  44  66 S5        29.97F
RALEIGH        PTCLDY    56  48  74 CALM      29.99F

$$

ANZ530>537-210300-
MARINE OBSERVATIONS

STATION/POSITION TIME  TEMP    WIND        PRES
                       AIR SEA DIR/SP/G
                 (UTC) (F)     (DEG/KT/KT) (MB)
THOMAS PT LIGHT  0200   63 64  190/ 17/ 19 1015.8F
BALT KEY BRIDGE  0100          180/ 12/ 13   N/A
COVE POINT       0100          200/  9/ 10   N/A
LEWISETTA        0100      62                N/A
SOLOMONS ISLAND  0100      66                N/A
PINEY POINT      0100          200/ 10/ 11   N/A

$$



USA.gov is the U.S. government's official web portal to all federal, state and local government web resources and services.